TIX221 KFLL-KCLE

Flight info

Callsign TIX221
Flight time 2h 20m
Altitude 35000
Route AGERS1 DUCEN Q87 VIYAP Q69 GURGE Q93 JEPEX HVQ JANYS ROLLN2
Aircraft B738/M-SDGIJ1LRWY/SB1

Departure

Time 2026-05-04 00:38
Airport Fort Lauderdale Hollywood International Airport (KFLL)

Arrival

Time 2026-05-04 02:58
Airport Cleveland Hopkins International Airport (KCLE)
Time Latitude Longitude Altitude Speed Heading
2026-05-03 23:13 26.07343 -80.14762 13 ft 0 kts 107°
2026-05-03 23:37 26.07346 -80.14774 12 ft 1 kts 107°
2026-05-03 23:37 26.07349 -80.14785 12 ft 2 kts 95°
2026-05-03 23:37 26.07347 -80.14801 12 ft 2 kts 67°
2026-05-03 23:38 26.07339 -80.14815 12 ft 2 kts 41°
2026-05-03 23:38 26.07326 -80.14824 12 ft 2 kts 15°
2026-05-03 23:38 26.07316 -80.14825 12 ft 0 kts 359°
2026-05-03 23:38 26.07309 -80.14825 12 ft 0 kts 356°
2026-05-03 23:42 26.07320 -80.14827 12 ft 3 kts 348°
2026-05-03 23:42 26.07352 -80.14842 12 ft 6 kts 315°
2026-05-03 23:42 26.07375 -80.14898 12 ft 8 kts 287°
2026-05-03 23:42 26.07382 -80.14921 12 ft 0 kts 292°
2026-05-03 23:43 26.07384 -80.14924 12 ft 0 kts 308°
2026-05-03 23:43 26.07390 -80.14932 12 ft 3 kts 311°
2026-05-03 23:43 26.07415 -80.14963 12 ft 7 kts 313°
2026-05-03 23:43 26.07464 -80.15018 12 ft 12 kts 307°
2026-05-03 23:44 26.07488 -80.15118 12 ft 13 kts 275°
2026-05-03 23:44 26.07489 -80.15218 12 ft 12 kts 270°
2026-05-03 23:44 26.07491 -80.15274 12 ft 0 kts 271°
2026-05-03 23:47 26.07491 -80.15278 12 ft 2 kts 271°
2026-05-03 23:47 26.07490 -80.15321 12 ft 7 kts 269°
2026-05-03 23:47 26.07490 -80.15338 12 ft 0 kts 269°
2026-05-03 23:50 26.07490 -80.15367 12 ft 6 kts 271°
2026-05-03 23:50 26.07490 -80.15369 12 ft 0 kts 270°
2026-05-03 23:51 26.07491 -80.15379 12 ft 3 kts 271°
2026-05-03 23:52 26.07491 -80.15388 12 ft 0 kts 271°
2026-05-03 23:52 26.07491 -80.15389 12 ft 1 kts 271°
2026-05-03 23:53 26.07492 -80.15434 12 ft 10 kts 270°
2026-05-03 23:53 26.07492 -80.15481 12 ft 0 kts 269°
2026-05-03 23:54 26.07492 -80.15487 12 ft 2 kts 270°
2026-05-03 23:54 26.07492 -80.15499 12 ft 0 kts 270°
2026-05-03 23:56 26.07492 -80.15500 12 ft 0 kts 270°
2026-05-03 23:56 26.07492 -80.15536 12 ft 6 kts 271°
2026-05-03 23:56 26.07492 -80.15569 12 ft 0 kts 269°
2026-05-03 23:57 26.07493 -80.15588 12 ft 1 kts 271°
2026-05-03 23:58 26.07493 -80.15589 12 ft 0 kts 271°
2026-05-03 23:59 26.07493 -80.15590 12 ft 0 kts 271°
2026-05-04 00:02 26.07493 -80.15642 12 ft 11 kts 270°
2026-05-04 00:02 26.07493 -80.15688 12 ft 0 kts 270°
2026-05-04 00:03 26.07493 -80.15689 12 ft 0 kts 270°
2026-05-04 00:03 26.07493 -80.15690 12 ft 1 kts 270°
2026-05-04 00:03 26.07493 -80.15738 12 ft 6 kts 270°
2026-05-04 00:03 26.07493 -80.15743 12 ft 0 kts 270°
2026-05-04 00:06 26.07493 -80.15746 12 ft 3 kts 270°
2026-05-04 00:06 26.07494 -80.15784 12 ft 0 kts 270°
2026-05-04 00:08 26.07494 -80.15807 12 ft 0 kts 270°
2026-05-04 00:08 26.07494 -80.15828 12 ft 9 kts 270°
2026-05-04 00:09 26.07494 -80.15908 12 ft 8 kts 271°
2026-05-04 00:09 26.07495 -80.15945 12 ft 0 kts 271°
2026-05-04 00:10 26.07495 -80.15946 12 ft 0 kts 271°
2026-05-04 00:10 26.07495 -80.15968 12 ft 0 kts 271°
2026-05-04 00:12 26.07495 -80.15997 12 ft 0 kts 271°
2026-05-04 00:14 26.07495 -80.16020 11 ft 9 kts 269°
2026-05-04 00:15 26.07495 -80.16076 11 ft 0 kts 270°
2026-05-04 00:15 26.07495 -80.16077 11 ft 0 kts 270°
2026-05-04 00:16 26.07495 -80.16080 11 ft 0 kts 270°
2026-05-04 00:17 26.07495 -80.16094 11 ft 0 kts 270°
2026-05-04 00:20 26.07495 -80.16097 11 ft 2 kts 270°
2026-05-04 00:20 26.07495 -80.16145 11 ft 0 kts 270°
2026-05-04 00:22 26.07495 -80.16164 11 ft 7 kts 270°
2026-05-04 00:22 26.07495 -80.16189 11 ft 0 kts 270°
2026-05-04 00:23 26.07495 -80.16212 11 ft 5 kts 270°
2026-05-04 00:23 26.07495 -80.16214 11 ft 0 kts 270°
2026-05-04 00:24 26.07495 -80.16236 11 ft 6 kts 270°
2026-05-04 00:24 26.07495 -80.16267 11 ft 0 kts 270°
2026-05-04 00:25 26.07495 -80.16269 11 ft 2 kts 271°
2026-05-04 00:25 26.07496 -80.16348 11 ft 12 kts 271°
2026-05-04 00:26 26.07496 -80.16380 11 ft 0 kts 270°
2026-05-04 00:28 26.07496 -80.16415 11 ft 11 kts 270°
2026-05-04 00:28 26.07496 -80.16464 11 ft 0 kts 270°
2026-05-04 00:28 26.07496 -80.16466 11 ft 1 kts 270°
2026-05-04 00:28 26.07496 -80.16536 11 ft 10 kts 270°
2026-05-04 00:29 26.07496 -80.16544 11 ft 0 kts 270°
2026-05-04 00:31 26.07496 -80.16546 11 ft 1 kts 270°
2026-05-04 00:31 26.07497 -80.16595 11 ft 6 kts 276°
2026-05-04 00:31 26.07498 -80.16605 11 ft 0 kts 282°
2026-05-04 00:32 26.07507 -80.16625 11 ft 7 kts 311°
2026-05-04 00:33 26.07537 -80.16640 11 ft 0 kts 355°
2026-05-04 00:34 26.07562 -80.16642 11 ft 9 kts 359°
2026-05-04 00:34 26.07602 -80.16642 11 ft 0 kts
2026-05-04 00:36 26.07641 -80.16643 11 ft 11 kts 360°
2026-05-04 00:36 26.07692 -80.16595 11 ft 10 kts 82°
2026-05-04 00:37 26.07693 -80.16575 11 ft 0 kts 88°
2026-05-04 00:37 26.07693 -80.16572 11 ft 3 kts 88°
2026-05-04 00:37 26.07695 -80.16294 11 ft 75 kts 88°
2026-05-04 00:37 26.07688 -80.15427 12 ft 145 kts 89°
2026-05-04 00:38 26.07672 -80.14097 198 ft 186 kts 90°
2026-05-04 00:38 26.07646 -80.12710 1126 ft 178 kts 81°
2026-05-04 00:38 26.08033 -80.11420 1851 ft 181 kts 64°
2026-05-04 00:38 26.08473 -80.10075 2321 ft 195 kts 74°
2026-05-04 00:39 26.08783 -80.08548 2741 ft 210 kts 73°
2026-05-04 00:39 26.09498 -80.07052 3087 ft 228 kts 41°
2026-05-04 00:39 26.10904 -80.06183 3553 ft 241 kts 16°
2026-05-04 00:39 26.12561 -80.05653 4119 ft 254 kts 14°
2026-05-04 00:40 26.14338 -80.05110 4634 ft 269 kts 10°
2026-05-04 00:40 26.16187 -80.04891 5339 ft 273 kts 353°
2026-05-04 00:40 26.18040 -80.05366 6101 ft 273 kts 337°
2026-05-04 00:40 26.19828 -80.06136 6862 ft 276 kts 334°
2026-05-04 00:41 26.21493 -80.07192 7576 ft 277 kts 318°
2026-05-04 00:41 26.22833 -80.08736 7937 ft 274 kts 302°
2026-05-04 00:41 26.23728 -80.10623 8002 ft 273 kts 290°
2026-05-04 00:41 26.24407 -80.12582 8042 ft 277 kts 288°
2026-05-04 00:42 26.25128 -80.14608 8824 ft 279 kts 294°
2026-05-04 00:42 26.26236 -80.16342 9742 ft 281 kts 315°
2026-05-04 00:42 26.27897 -80.17520 10406 ft 291 kts 329°
2026-05-04 00:42 26.29788 -80.18511 10778 ft 308 kts 331°
2026-05-04 00:43 26.31813 -80.19550 11158 ft 323 kts 330°
2026-05-04 00:43 26.33895 -80.20662 11515 ft 338 kts 329°
2026-05-04 00:43 26.36035 -80.21841 11859 ft 352 kts 329°
2026-05-04 00:43 26.38382 -80.22900 12127 ft 373 kts 340°
2026-05-04 00:44 26.41004 -80.23473 12584 ft 387 kts 348°
2026-05-04 00:44 26.43705 -80.23764 13087 ft 395 kts 352°
2026-05-04 00:44 26.46488 -80.23965 13650 ft 401 kts 353°
2026-05-04 00:44 26.49300 -80.24152 14334 ft 402 kts 352°
2026-05-04 00:45 26.52137 -80.24364 14669 ft 407 kts 351°
2026-05-04 00:45 26.54961 -80.24602 14710 ft 408 kts 351°
2026-05-04 00:45 26.57821 -80.24886 14711 ft 404 kts 349°
2026-05-04 00:45 26.60633 -80.25281 14717 ft 404 kts 347°
2026-05-04 00:46 26.63406 -80.25746 14714 ft 403 kts 346°
2026-05-04 00:46 26.66188 -80.26247 14714 ft 404 kts 346°
2026-05-04 00:46 26.68981 -80.26787 14717 ft 400 kts 343°
2026-05-04 00:46 26.71686 -80.27538 14711 ft 399 kts 339°
2026-05-04 00:47 26.74345 -80.28494 14935 ft 403 kts 336°
2026-05-04 00:47 26.77003 -80.29581 15582 ft 404 kts 334°
2026-05-04 00:47 26.79610 -80.30697 16338 ft 402 kts 333°
2026-05-04 00:47 26.82245 -80.31840 16900 ft 405 kts 333°
2026-05-04 00:48 26.84879 -80.32977 17534 ft 406 kts 333°
2026-05-04 00:48 26.87547 -80.34118 18087 ft 409 kts 333°
2026-05-04 00:48 26.90228 -80.35255 18623 ft 413 kts 333°
2026-05-04 00:48 26.92955 -80.36407 19080 ft 418 kts 333°
2026-05-04 00:49 26.95690 -80.37552 19535 ft 423 kts 333°
2026-05-04 00:49 26.98505 -80.38702 20093 ft 425 kts 333°
2026-05-04 00:49 27.01296 -80.39824 20602 ft 428 kts 333°
2026-05-04 00:49 27.04132 -80.40958 21006 ft 433 kts 333°
2026-05-04 00:50 27.06999 -80.42105 21597 ft 433 kts 333°
2026-05-04 00:50 27.09845 -80.43251 21901 ft 440 kts 333°
2026-05-04 00:50 27.12713 -80.44453 22389 ft 441 kts 332°
2026-05-04 00:50 27.15610 -80.45715 22873 ft 442 kts 331°
2026-05-04 00:51 27.18489 -80.46991 23330 ft 445 kts 331°
2026-05-04 00:51 27.21402 -80.48292 23738 ft 448 kts 330°
2026-05-04 00:51 27.24326 -80.49603 24108 ft 452 kts 331°
2026-05-04 00:51 27.27227 -80.50899 24608 ft 453 kts 330°
2026-05-04 00:52 27.30210 -80.52228 25039 ft 455 kts 330°
2026-05-04 00:52 27.33176 -80.53547 25437 ft 458 kts 330°
2026-05-04 00:52 27.36166 -80.54876 25859 ft 461 kts 330°
2026-05-04 00:52 27.39181 -80.56183 26231 ft 465 kts 331°
2026-05-04 00:53 27.42213 -80.57424 26739 ft 466 kts 332°
2026-05-04 00:53 27.45304 -80.58651 27055 ft 470 kts 333°
2026-05-04 00:53 27.48425 -80.59873 27351 ft 473 kts 333°
2026-05-04 00:53 27.51590 -80.61106 27694 ft 476 kts 333°
2026-05-04 00:54 27.54709 -80.62324 28174 ft 475 kts 332°
2026-05-04 00:54 27.57826 -80.63544 28694 ft 473 kts 332°
2026-05-04 00:54 27.60942 -80.64768 29145 ft 473 kts 332°
2026-05-04 00:54 27.64022 -80.65983 29636 ft 470 kts 331°
2026-05-04 00:55 27.67087 -80.67194 30162 ft 467 kts 331°
2026-05-04 00:55 27.70145 -80.68407 30568 ft 467 kts 330°
2026-05-04 00:55 27.73251 -80.69644 30913 ft 467 kts 330°
2026-05-04 00:55 27.76304 -80.70863 31338 ft 465 kts 330°
2026-05-04 00:56 27.79361 -80.72085 31717 ft 464 kts 329°
2026-05-04 00:56 27.82398 -80.73300 32030 ft 465 kts 329°
2026-05-04 00:56 27.85484 -80.74537 32346 ft 465 kts 329°
2026-05-04 00:56 27.88538 -80.75766 32506 ft 469 kts 328°
2026-05-04 00:57 27.91629 -80.77009 32869 ft 467 kts 328°
2026-05-04 00:57 27.94709 -80.78243 33193 ft 467 kts 328°
2026-05-04 00:57 27.97801 -80.79483 33596 ft 466 kts 328°
2026-05-04 00:57 28.00849 -80.80703 34014 ft 464 kts 328°
2026-05-04 00:58 28.03900 -80.81923 34528 ft 460 kts 328°
2026-05-04 00:58 28.06903 -80.83124 34976 ft 456 kts 327°
2026-05-04 00:58 28.09884 -80.84324 35053 ft 459 kts 327°
2026-05-04 00:59 28.15894 -80.86757 35061 ft 458 kts 327°
2026-05-04 00:59 28.21864 -80.89160 35067 ft 457 kts 327°
2026-05-04 01:00 28.27915 -80.91616 35062 ft 458 kts 327°
2026-05-04 01:00 28.33915 -80.94035 35069 ft 458 kts 327°
2026-05-04 01:01 28.39902 -80.96463 35073 ft 456 kts 327°
2026-05-04 01:01 28.45915 -80.98896 35087 ft 458 kts 327°
2026-05-04 01:02 28.51962 -81.01350 35082 ft 458 kts 327°
2026-05-04 01:02 28.57949 -81.03786 35078 ft 459 kts 327°
2026-05-04 01:03 28.64016 -81.06248 35084 ft 457 kts 326°
2026-05-04 01:03 28.69991 -81.08682 35081 ft 461 kts 326°
2026-05-04 01:04 28.76077 -81.11162 35083 ft 460 kts 327°
2026-05-04 01:04 28.82039 -81.13586 35087 ft 454 kts 326°
2026-05-04 01:05 28.88030 -81.16032 35083 ft 457 kts 326°
2026-05-04 01:05 28.93981 -81.18471 35091 ft 454 kts 326°
2026-05-04 01:06 28.99998 -81.20942 35078 ft 458 kts 327°
2026-05-04 01:06 29.02994 -81.22147 34909 ft 459 kts 327°
2026-05-04 01:06 29.06042 -81.23345 34613 ft 462 kts 328°
2026-05-04 01:06 29.09087 -81.24506 34257 ft 461 kts 329°
2026-05-04 01:07 29.12091 -81.25629 33847 ft 464 kts 329°
2026-05-04 01:07 29.15165 -81.26765 33468 ft 463 kts 330°
2026-05-04 01:07 29.18278 -81.27888 33267 ft 466 kts 330°
2026-05-04 01:08 29.24451 -81.30022 33643 ft 460 kts 332°
2026-05-04 01:08 29.27489 -81.31009 34059 ft 456 kts 332°
2026-05-04 01:08 29.30589 -81.31956 34447 ft 454 kts 333°
2026-05-04 01:08 29.33643 -81.32837 34587 ft 457 kts 334°
2026-05-04 01:09 29.36804 -81.33703 34554 ft 465 kts 334°
2026-05-04 01:09 29.39969 -81.34526 34414 ft 467 kts 335°
2026-05-04 01:09 29.43182 -81.35310 34275 ft 469 kts 336°
2026-05-04 01:10 29.49615 -81.36754 34186 ft 471 kts 338°
2026-05-04 01:10 29.56142 -81.38040 34487 ft 475 kts 340°
2026-05-04 01:10 29.59406 -81.38614 34770 ft 471 kts 340°
2026-05-04 01:11 29.62692 -81.39140 34959 ft 472 kts 341°
2026-05-04 01:11 29.69303 -81.40053 34861 ft 481 kts 342°
2026-05-04 01:11 29.72638 -81.40443 34731 ft 481 kts 343°
2026-05-04 01:12 29.75991 -81.40755 34736 ft 482 kts 348°
2026-05-04 01:12 29.79355 -81.40475 35039 ft 495 kts 359°
2026-05-04 01:12 29.82768 -81.39651 35107 ft 505 kts
2026-05-04 01:13 29.89653 -81.37873 35121 ft 505 kts
2026-05-04 01:13 29.96605 -81.36912 35122 ft 492 kts 353°
2026-05-04 01:14 30.03371 -81.36802 35110 ft 480 kts 348°
2026-05-04 01:14 30.10029 -81.37098 35115 ft 481 kts 346°
2026-05-04 01:15 30.16696 -81.37515 35121 ft 479 kts 346°
2026-05-04 01:15 30.23388 -81.37954 35111 ft 480 kts 346°
2026-05-04 01:16 30.30079 -81.38378 35115 ft 482 kts 347°
2026-05-04 01:16 30.36776 -81.38786 35113 ft 480 kts 347°
2026-05-04 01:17 30.43501 -81.39188 35117 ft 480 kts 347°
2026-05-04 01:17 30.50192 -81.39581 35120 ft 480 kts 347°
2026-05-04 01:18 30.56878 -81.39939 35118 ft 481 kts 347°
2026-05-04 01:18 30.63596 -81.40287 35118 ft 481 kts 347°
2026-05-04 01:19 30.70381 -81.40642 35119 ft 486 kts 347°
2026-05-04 01:19 30.77108 -81.40992 35118 ft 481 kts 348°
2026-05-04 01:20 30.83809 -81.41343 35107 ft 482 kts 348°
2026-05-04 01:20 30.90573 -81.41703 35118 ft 481 kts 348°
2026-05-04 01:20 30.93891 -81.41880 34945 ft 482 kts 348°
2026-05-04 01:21 30.97285 -81.42060 35281 ft 480 kts 348°
2026-05-04 01:21 31.00625 -81.42240 35129 ft 483 kts 348°
2026-05-04 01:21 31.03976 -81.42418 35006 ft 479 kts 348°
2026-05-04 01:21 31.07336 -81.42594 35117 ft 481 kts 348°
2026-05-04 01:22 31.10710 -81.42779 35118 ft 483 kts 348°
2026-05-04 01:22 31.17343 -81.43138 35123 ft 483 kts 348°
2026-05-04 01:23 31.24081 -81.43500 35120 ft 482 kts 348°
2026-05-04 01:23 31.30837 -81.43755 35127 ft 485 kts 350°
2026-05-04 01:24 31.37608 -81.43823 35128 ft 487 kts 351°
2026-05-04 01:24 31.44416 -81.43733 35120 ft 489 kts 356°
2026-05-04 01:25 31.51281 -81.42332 35117 ft 505 kts
2026-05-04 01:25 31.58056 -81.39867 35128 ft 509 kts 12°
2026-05-04 01:26 31.64726 -81.37051 35124 ft 509 kts 13°
2026-05-04 01:26 31.71407 -81.34184 35122 ft 508 kts 13°
2026-05-04 01:27 31.78089 -81.31351 35130 ft 510 kts 13°
2026-05-04 01:27 31.84816 -81.28536 35123 ft 509 kts 12°
2026-05-04 01:28 31.91507 -81.25794 35123 ft 508 kts 11°
2026-05-04 01:28 31.98326 -81.23956 35127 ft 497 kts
2026-05-04 01:29 32.05181 -81.23182 35122 ft 490 kts 355°
2026-05-04 01:29 32.11889 -81.22819 35122 ft 487 kts 353°
2026-05-04 01:30 32.18545 -81.22552 35127 ft 487 kts 353°
2026-05-04 01:30 32.25353 -81.22268 35125 ft 487 kts 354°
2026-05-04 01:31 32.32159 -81.21957 35123 ft 486 kts 354°
2026-05-04 01:31 32.38946 -81.21626 35121 ft 487 kts 354°
2026-05-04 01:32 32.45715 -81.21371 35116 ft 485 kts 352°
2026-05-04 01:32 32.52412 -81.21987 35117 ft 472 kts 342°
2026-05-04 01:33 32.58826 -81.23460 35117 ft 467 kts 338°
2026-05-04 01:33 32.65179 -81.25158 35115 ft 465 kts 338°
2026-05-04 01:34 32.71535 -81.26858 35111 ft 467 kts 338°
2026-05-04 01:34 32.77889 -81.28506 35114 ft 468 kts 339°
2026-05-04 01:35 32.84261 -81.30127 35112 ft 465 kts 339°
2026-05-04 01:35 32.90611 -81.31735 35109 ft 467 kts 339°
2026-05-04 01:36 32.96999 -81.33350 35105 ft 466 kts 339°
2026-05-04 01:36 33.03411 -81.34966 35110 ft 466 kts 339°
2026-05-04 01:37 33.09759 -81.36575 35106 ft 466 kts 340°
2026-05-04 01:37 33.15917 -81.38136 35104 ft 465 kts 340°
2026-05-04 01:38 33.22250 -81.39744 35107 ft 464 kts 339°
2026-05-04 01:38 33.28568 -81.41309 35107 ft 466 kts 342°
2026-05-04 01:39 33.35048 -81.42391 35103 ft 469 kts 346°
2026-05-04 01:39 33.41532 -81.43194 35104 ft 471 kts 346°
2026-05-04 01:40 33.48043 -81.43975 35097 ft 468 kts 346°
2026-05-04 01:40 33.54568 -81.44792 35100 ft 467 kts 346°
2026-05-04 01:41 33.61005 -81.45628 35096 ft 467 kts 346°
2026-05-04 01:41 33.67511 -81.46491 35101 ft 467 kts 346°
2026-05-04 01:42 33.73965 -81.47356 35099 ft 467 kts 346°
2026-05-04 01:42 33.80405 -81.48222 35102 ft 466 kts 346°
2026-05-04 01:43 33.86907 -81.49098 35102 ft 467 kts 346°
2026-05-04 01:43 33.93344 -81.49965 35095 ft 464 kts 346°
2026-05-04 01:44 33.99737 -81.51006 35092 ft 459 kts 343°
2026-05-04 01:44 34.06021 -81.52452 35094 ft 458 kts 341°
2026-05-04 01:45 34.12219 -81.53969 35094 ft 456 kts 342°
2026-05-04 01:45 34.21403 -81.56155 35088 ft 456 kts 342°
2026-05-04 01:46 34.27681 -81.57617 35102 ft 457 kts 342°
2026-05-04 01:46 34.33866 -81.59040 35102 ft 454 kts 343°
2026-05-04 01:47 34.40096 -81.60471 35104 ft 454 kts 343°
2026-05-04 01:47 34.46336 -81.61906 35101 ft 455 kts 343°
2026-05-04 01:48 34.52510 -81.63324 35091 ft 451 kts 343°
2026-05-04 01:48 34.58711 -81.64753 35091 ft 451 kts 343°
2026-05-04 01:49 34.64713 -81.66139 35081 ft 450 kts 342°
2026-05-04 01:49 34.70847 -81.67557 35090 ft 450 kts 343°
2026-05-04 01:50 34.77040 -81.68992 35083 ft 449 kts 343°
2026-05-04 01:50 34.83176 -81.70414 35082 ft 449 kts 343°
2026-05-04 01:51 34.89341 -81.71846 35081 ft 449 kts 343°
2026-05-04 01:51 34.95507 -81.73231 35082 ft 449 kts 345°
2026-05-04 01:52 35.01751 -81.73883 35083 ft 452 kts 352°
2026-05-04 01:52 35.08060 -81.74006 35078 ft 455 kts 354°
2026-05-04 01:53 35.14115 -81.74012 35085 ft 454 kts 354°
2026-05-04 01:53 35.20460 -81.74017 35093 ft 454 kts 353°
2026-05-04 01:54 35.26820 -81.74046 35086 ft 454 kts 353°
2026-05-04 01:54 35.33133 -81.74088 35097 ft 453 kts 353°
2026-05-04 01:55 35.39433 -81.74140 35102 ft 451 kts 353°
2026-05-04 01:55 35.45726 -81.74199 35104 ft 453 kts 353°
2026-05-04 01:56 35.52059 -81.74259 35108 ft 452 kts 353°
2026-05-04 01:56 35.58371 -81.74316 35107 ft 450 kts 353°
2026-05-04 01:57 35.64652 -81.74375 35111 ft 452 kts 353°
2026-05-04 01:57 35.70927 -81.74434 35109 ft 449 kts 353°
2026-05-04 01:58 35.77190 -81.74490 35100 ft 449 kts 352°
2026-05-04 01:58 35.83470 -81.74551 35113 ft 448 kts 353°
2026-05-04 01:59 35.89692 -81.74607 35114 ft 448 kts 352°
2026-05-04 01:59 35.95973 -81.74669 35118 ft 448 kts 352°
2026-05-04 02:00 36.02229 -81.74728 35110 ft 448 kts 352°
2026-05-04 02:00 36.08467 -81.74786 35111 ft 448 kts 352°
2026-05-04 02:01 36.14621 -81.74845 35109 ft 447 kts 352°
2026-05-04 02:01 36.20803 -81.74904 35108 ft 447 kts 352°
2026-05-04 02:02 36.27042 -81.74963 35107 ft 447 kts 352°
2026-05-04 02:02 36.33258 -81.75021 35105 ft 446 kts 352°
2026-05-04 02:03 36.39516 -81.75080 35104 ft 447 kts 352°
2026-05-04 02:03 36.45748 -81.75140 35103 ft 446 kts 352°
2026-05-04 02:04 36.51941 -81.75199 35105 ft 447 kts 352°
2026-05-04 02:04 36.58215 -81.75259 35103 ft 446 kts 352°
2026-05-04 02:05 36.64438 -81.75319 35104 ft 447 kts 351°
2026-05-04 02:05 36.70696 -81.75378 35099 ft 446 kts 351°
2026-05-04 02:06 36.76915 -81.75438 35100 ft 445 kts 351°
2026-05-04 02:06 36.83127 -81.75498 35098 ft 444 kts 351°
2026-05-04 02:07 36.89335 -81.75559 35099 ft 445 kts 351°
2026-05-04 02:07 36.95541 -81.75619 35106 ft 445 kts 351°
2026-05-04 02:08 37.01733 -81.75678 35113 ft 444 kts 351°
2026-05-04 02:08 37.07959 -81.75738 35117 ft 445 kts 351°
2026-05-04 02:09 37.13955 -81.75798 35111 ft 445 kts 351°
2026-05-04 02:09 37.20114 -81.75855 35098 ft 443 kts 351°
2026-05-04 02:10 37.26319 -81.75916 35093 ft 443 kts 351°
2026-05-04 02:10 37.32507 -81.75977 35088 ft 442 kts 351°
2026-05-04 02:11 37.38649 -81.76036 35082 ft 442 kts 351°
2026-05-04 02:11 37.44837 -81.76099 35084 ft 443 kts 351°
2026-05-04 02:12 37.51000 -81.76160 35080 ft 443 kts 351°
2026-05-04 02:12 37.57161 -81.76218 35075 ft 440 kts 351°
2026-05-04 02:13 37.63290 -81.76276 35073 ft 439 kts 351°
2026-05-04 02:13 37.69416 -81.76337 35075 ft 441 kts 351°
2026-05-04 02:14 37.75535 -81.76396 35071 ft 437 kts 351°
2026-05-04 02:14 37.81645 -81.76458 35070 ft 439 kts 351°
2026-05-04 02:15 37.87774 -81.76519 35071 ft 439 kts 351°
2026-05-04 02:15 37.93874 -81.76580 35074 ft 438 kts 351°
2026-05-04 02:16 37.99981 -81.76644 35074 ft 440 kts 351°
2026-05-04 02:16 38.06069 -81.76698 35067 ft 434 kts 351°
2026-05-04 02:17 38.11925 -81.76758 35062 ft 438 kts 351°
2026-05-04 02:18 38.24232 -81.76880 35052 ft 434 kts 351°
2026-05-04 02:18 38.30338 -81.76948 35058 ft 438 kts 351°
2026-05-04 02:19 38.36311 -81.77143 35053 ft 434 kts 347°
2026-05-04 02:19 38.42271 -81.77973 35051 ft 426 kts 343°
2026-05-04 02:20 38.48118 -81.79014 35055 ft 426 kts 343°
2026-05-04 02:20 38.54007 -81.80054 35013 ft 426 kts 343°
2026-05-04 02:21 38.59904 -81.81062 35057 ft 426 kts 344°
2026-05-04 02:21 38.65775 -81.82044 35052 ft 423 kts 344°
2026-05-04 02:22 38.71619 -81.83018 35044 ft 425 kts 344°
2026-05-04 02:22 38.77484 -81.83990 35046 ft 424 kts 344°
2026-05-04 02:23 38.83407 -81.84973 35048 ft 427 kts 344°
2026-05-04 02:23 38.89280 -81.85946 35043 ft 422 kts 344°
2026-05-04 02:24 38.95075 -81.86909 35042 ft 423 kts 344°
2026-05-04 02:24 39.00938 -81.87890 35041 ft 423 kts 344°
2026-05-04 02:25 39.06767 -81.88863 35037 ft 422 kts 344°
2026-05-04 02:25 39.12555 -81.89838 35033 ft 428 kts 344°
2026-05-04 02:26 39.18358 -81.90810 35031 ft 425 kts 345°
2026-05-04 02:26 39.24270 -81.91801 35028 ft 424 kts 345°
2026-05-04 02:27 39.30135 -81.92787 35026 ft 426 kts 345°
2026-05-04 02:27 39.36057 -81.93785 34833 ft 428 kts 345°
2026-05-04 02:28 39.38976 -81.94276 34635 ft 426 kts 345°
2026-05-04 02:28 39.41926 -81.94771 34408 ft 424 kts 345°
2026-05-04 02:28 39.44855 -81.95264 34192 ft 424 kts 345°
2026-05-04 02:28 39.47782 -81.95757 33984 ft 424 kts 345°
2026-05-04 02:29 39.50734 -81.96256 33761 ft 424 kts 345°
2026-05-04 02:29 39.53664 -81.96754 33512 ft 425 kts 345°
2026-05-04 02:29 39.56608 -81.97255 33265 ft 426 kts 345°
2026-05-04 02:29 39.59568 -81.97759 33019 ft 426 kts 345°
2026-05-04 02:30 39.62508 -81.98258 32775 ft 427 kts 345°
2026-05-04 02:30 39.65477 -81.98764 32520 ft 428 kts 345°
2026-05-04 02:30 39.68426 -81.99267 32273 ft 428 kts 345°
2026-05-04 02:30 39.71355 -81.99765 32027 ft 428 kts 346°
2026-05-04 02:31 39.74359 -82.00196 31774 ft 430 kts 348°
2026-05-04 02:31 39.77372 -82.00382 31525 ft 435 kts 353°
2026-05-04 02:31 39.80431 -82.00171 31285 ft 442 kts 358°
2026-05-04 02:31 39.83474 -81.99669 31041 ft 445 kts
2026-05-04 02:32 39.86528 -81.99003 30788 ft 447 kts
2026-05-04 02:32 39.89616 -81.98251 30519 ft 447 kts
2026-05-04 02:32 39.92663 -81.97478 30256 ft 448 kts
2026-05-04 02:32 39.95748 -81.96689 29986 ft 448 kts
2026-05-04 02:33 39.98802 -81.95911 29719 ft 446 kts
2026-05-04 02:33 40.01825 -81.95147 29419 ft 443 kts
2026-05-04 02:33 40.04841 -81.94389 29071 ft 435 kts
2026-05-04 02:33 40.07820 -81.93646 28594 ft 428 kts
2026-05-04 02:34 40.10625 -81.92952 28127 ft 423 kts
2026-05-04 02:34 40.13472 -81.92251 27642 ft 418 kts
2026-05-04 02:34 40.16251 -81.91570 27178 ft 413 kts
2026-05-04 02:34 40.19048 -81.90889 26694 ft 410 kts
2026-05-04 02:35 40.21936 -81.90196 26184 ft 421 kts
2026-05-04 02:35 40.24839 -81.89502 25664 ft 422 kts
2026-05-04 02:35 40.27685 -81.88812 25156 ft 417 kts
2026-05-04 02:35 40.30531 -81.88116 24659 ft 411 kts
2026-05-04 02:36 40.33342 -81.87427 24160 ft 406 kts
2026-05-04 02:36 40.36112 -81.86748 23659 ft 401 kts
2026-05-04 02:36 40.38845 -81.86093 23163 ft 395 kts
2026-05-04 02:36 40.41531 -81.85464 22679 ft 390 kts
2026-05-04 02:37 40.44191 -81.84847 22193 ft 385 kts
2026-05-04 02:37 40.46829 -81.84237 21727 ft 380 kts
2026-05-04 02:37 40.49432 -81.83637 21257 ft 384 kts
2026-05-04 02:37 40.52100 -81.83026 20863 ft 387 kts
2026-05-04 02:38 40.54727 -81.82413 20726 ft 373 kts
2026-05-04 02:38 40.57265 -81.81817 20226 ft 370 kts
2026-05-04 02:38 40.59795 -81.81225 19741 ft 366 kts
2026-05-04 02:38 40.62291 -81.80641 19283 ft 362 kts
2026-05-04 02:39 40.64764 -81.80064 18827 ft 357 kts
2026-05-04 02:39 40.67207 -81.79492 18369 ft 353 kts
2026-05-04 02:39 40.69626 -81.78925 17928 ft 349 kts
2026-05-04 02:39 40.72037 -81.78359 17506 ft 344 kts
2026-05-04 02:40 40.74365 -81.77812 17065 ft 341 kts
2026-05-04 02:40 40.76721 -81.77259 16625 ft 337 kts
2026-05-04 02:40 40.79033 -81.76717 16203 ft 344 kts
2026-05-04 02:40 40.81429 -81.76161 15743 ft 350 kts
2026-05-04 02:41 40.83815 -81.75603 15285 ft 346 kts
2026-05-04 02:41 40.86192 -81.75046 14841 ft 343 kts
2026-05-04 02:41 40.88565 -81.74570 14374 ft 338 kts
2026-05-04 02:41 40.90897 -81.74333 13938 ft 333 kts 358°
2026-05-04 02:42 40.93169 -81.74241 13633 ft 325 kts 356°
2026-05-04 02:42 40.95436 -81.74194 13221 ft 322 kts 356°
2026-05-04 02:42 40.97706 -81.74147 12764 ft 321 kts 356°
2026-05-04 02:42 40.99941 -81.74085 12316 ft 319 kts 357°
2026-05-04 02:43 41.02162 -81.74009 11866 ft 318 kts 357°
2026-05-04 02:43 41.04375 -81.73922 11414 ft 316 kts 358°
2026-05-04 02:43 41.06577 -81.73831 10979 ft 314 kts 357°
2026-05-04 02:43 41.08747 -81.73743 10579 ft 310 kts 357°
2026-05-04 02:44 41.10889 -81.73656 10347 ft 301 kts 357°
2026-05-04 02:44 41.12929 -81.73573 10249 ft 288 kts 357°
2026-05-04 02:44 41.14915 -81.73491 10151 ft 276 kts 357°
2026-05-04 02:44 41.16822 -81.73415 10008 ft 269 kts 357°
2026-05-04 02:45 41.18702 -81.73345 10004 ft 272 kts 357°
2026-05-04 02:45 41.20646 -81.73274 9499 ft 285 kts 357°
2026-05-04 02:45 41.22622 -81.73199 8909 ft 286 kts 357°
2026-05-04 02:45 41.24587 -81.73116 8521 ft 275 kts 357°
2026-05-04 02:46 41.26482 -81.73032 8194 ft 264 kts 357°
2026-05-04 02:46 41.28266 -81.72956 7883 ft 254 kts 357°
2026-05-04 02:46 41.30033 -81.72885 7570 ft 255 kts 356°
2026-05-04 02:46 41.31864 -81.72819 7290 ft 262 kts 356°
2026-05-04 02:47 41.33626 -81.72742 7170 ft 245 kts 356°
2026-05-04 02:47 41.35278 -81.72661 7096 ft 227 kts 356°
2026-05-04 02:47 41.36822 -81.72591 7038 ft 226 kts 355°
2026-05-04 02:47 41.38435 -81.72441 6976 ft 235 kts
2026-05-04 02:48 41.39899 -81.71365 6996 ft 249 kts 40°
2026-05-04 02:48 41.41037 -81.69611 6796 ft 256 kts 48°
2026-05-04 02:48 41.42124 -81.67692 6408 ft 259 kts 50°
2026-05-04 02:48 41.43179 -81.65797 6247 ft 252 kts 49°
2026-05-04 02:49 41.44211 -81.63937 6148 ft 242 kts 49°
2026-05-04 02:49 41.45192 -81.62157 6096 ft 237 kts 49°
2026-05-04 02:49 41.46208 -81.60321 6024 ft 250 kts 49°
2026-05-04 02:49 41.47246 -81.58444 5976 ft 252 kts 49°
2026-05-04 02:50 41.48296 -81.56553 5941 ft 248 kts 46°
2026-05-04 02:50 41.49579 -81.55109 5906 ft 242 kts 18°
2026-05-04 02:50 41.51174 -81.54663 5696 ft 229 kts 347°
2026-05-04 02:50 41.52631 -81.55314 5487 ft 209 kts 323°
2026-05-04 02:51 41.53801 -81.56296 5431 ft 195 kts 320°
2026-05-04 02:51 41.54898 -81.57327 5247 ft 184 kts 307°
2026-05-04 02:51 41.55389 -81.58763 5195 ft 164 kts 276°
2026-05-04 02:51 41.55517 -81.60243 5140 ft 158 kts 274°
2026-05-04 02:52 41.55619 -81.61697 5095 ft 158 kts 272°
2026-05-04 02:52 41.55433 -81.63137 4849 ft 163 kts 241°
2026-05-04 02:52 41.54655 -81.64273 4486 ft 169 kts 229°
2026-05-04 02:52 41.53849 -81.65428 4121 ft 171 kts 233°
2026-05-04 02:53 41.53098 -81.66625 3850 ft 169 kts 233°
2026-05-04 02:53 41.52347 -81.67822 3631 ft 162 kts 233°
2026-05-04 02:53 41.51654 -81.68916 3526 ft 149 kts 233°
2026-05-04 02:53 41.51002 -81.69951 3436 ft 140 kts 234°
2026-05-04 02:54 41.50380 -81.70941 3306 ft 139 kts 233°
2026-05-04 02:54 41.49761 -81.71918 3159 ft 137 kts 234°
2026-05-04 02:54 41.49148 -81.72890 3057 ft 136 kts 233°
2026-05-04 02:54 41.48537 -81.73857 3030 ft 139 kts 233°
2026-05-04 02:55 41.47303 -81.75809 2572 ft 138 kts 233°
2026-05-04 02:55 41.46678 -81.76799 2358 ft 140 kts 232°
2026-05-04 02:55 41.46048 -81.77795 2178 ft 142 kts 232°
2026-05-04 02:56 41.45420 -81.78785 1971 ft 138 kts 232°
2026-05-04 02:56 41.44796 -81.79768 1798 ft 139 kts 232°
2026-05-04 02:56 41.44181 -81.80746 1658 ft 135 kts 233°
2026-05-04 02:56 41.43554 -81.81712 1352 ft 139 kts 230°
2026-05-04 02:57 41.42917 -81.82709 1126 ft 137 kts 232°
2026-05-04 02:57 41.42310 -81.83659 932 ft 134 kts 231°
2026-05-04 02:57 41.41711 -81.84609 828 ft 131 kts 231°
2026-05-04 02:57 41.41129 -81.85538 778 ft 117 kts 230°
2026-05-04 02:58 41.40691 -81.86230 772 ft 72 kts 231°
2026-05-04 02:58 41.40482 -81.86551 764 ft 35 kts 218°
2026-05-04 02:58 41.40315 -81.86643 762 ft 0 kts 191°
2026-05-04 02:59 41.40311 -81.86643 762 ft 2 kts 171°
2026-05-04 03:00 41.40268 -81.86601 762 ft 11 kts 136°
2026-05-04 03:00 41.40201 -81.86519 764 ft 14 kts 139°
2026-05-04 03:00 41.40114 -81.86421 766 ft 18 kts 140°
2026-05-04 03:00 41.40009 -81.86297 769 ft 20 kts 124°
2026-05-04 03:01 41.40037 -81.86147 773 ft 16 kts 48°
2026-05-04 03:01 41.40110 -81.86040 775 ft 15 kts 47°
2026-05-04 03:01 41.40201 -81.85960 777 ft 16 kts 16°
2026-05-04 03:01 41.40310 -81.85905 778 ft 17 kts 36°
2026-05-04 03:02 41.40400 -81.85775 779 ft 19 kts 51°
2026-05-04 03:02 41.40492 -81.85628 781 ft 21 kts 49°
2026-05-04 03:02 41.40594 -81.85467 782 ft 24 kts 50°
2026-05-04 03:02 41.40651 -81.85290 784 ft 21 kts 89°
2026-05-04 03:03 41.40643 -81.85084 787 ft 22 kts 94°
2026-05-04 03:03 41.40635 -81.84881 789 ft 19 kts 92°
2026-05-04 03:03 41.40628 -81.84698 790 ft 20 kts 93°
2026-05-04 03:03 41.40619 -81.84499 792 ft 22 kts 92°
2026-05-04 03:04 41.40613 -81.84322 792 ft 16 kts 92°
2026-05-04 03:04 41.40614 -81.84167 793 ft 17 kts 79°
2026-05-04 03:04 41.40682 -81.84049 793 ft 14 kts 19°
2026-05-04 03:04 41.40723 -81.84049 793 ft 0 kts 337°
2026-05-04 03:05 41.40724 -81.84054 793 ft 1 kts 281°
2026-05-04 03:05 41.40725 -81.84064 793 ft 0 kts 278°
2026-05-04 03:06 41.40727 -81.84075 793 ft 0 kts 284°
2026-05-04 03:06 41.40728 -81.84079 793 ft 1 kts 288°
2026-05-04 03:06 41.40729 -81.84084 793 ft 0 kts 289°